Crosby, ND

12:27 AM CDT on September 25, 2016 (GMT -0500)
Crosby

Weather History for KD50 - March, 2013

Change the Weather History Date:

Friday, March 8, 2013

  Actual Average (KISN) Record (KISN)
Temperature  
Mean Temperature 11 °F 25 °F  
Max Temperature 19 °F 36 °F 54 °F (2015)
Min Temperature 3 °F 15 °F -31 °F (2003)
Degree Days  
Heating Degree Days 54 40  
Month to date heating degree days 330  
Since 1 July heating degree days 7098  
Cooling Degree Days 0 0  
Month to date cooling degree days 0  
Year to date cooling degree days 0  
Moisture  
Dew Point 8 °F    
Average Humidity 84    
Maximum Humidity 93    
Minimum Humidity 73    
Precipitation  
Precipitation 0.05 in 0.02 in 0.55 in (1897)
Month to date precipitation 0.16  
Year to date precipitation 1.14  
Sea Level Pressure  
Sea Level Pressure 30.10 in    
Wind  
Wind Speed 9 mph (NW)    
Max Wind Speed 17 mph    
Max Gust Speed -    
Visibility 10 miles    
Events Snow    
T = Trace of Precipitation, MM = Missing Value Source: NWS Daily Summary

Daily Weather History Graph

Daily Weather History Graph

Search for Another Location

Airport or City:

Trip Planner

Search our weather history database for the weather conditions in past years. The results will help you decide how hot, cold, wet, or windy it might be!

Date:

Astronomy

Mar. 08, 2013 Rise Set
Actual Time 7:20 AM CST 6:48 PM CST
Civil Twilight 6:48 AM CST 7:19 PM CST
Nautical Twilight 6:12 AM CST 7:56 PM CST
Astronomical Twilight 5:35 AM CST 8:33 PM CST
Moon 5:20 AM CST (3/8) 3:33 PM CST (3/8)
Length of Visible Light 12h 30m
Length of Day
11h 27m
Waning Crescent, 11% of the Moon is Illuminated
Mar 8
Waning Crescent
Mar 11
New
Mar 19
First Quarter
Mar 27
Full
Apr 2
Last Quarter

Hourly Weather History & Observations

Time (CST) Temp. Windchill Dew Point Humidity Pressure Visibility Wind Dir Wind Speed Gust Speed Precip Events Conditions
12:15 AM 19.4 °F 5.0 °F 15.8 °F 86% 30.10 in 10.0 mi West 16.1 mph - N/A   Overcast
12:35 AM 19.4 °F 6.0 °F 15.8 °F 86% 30.10 in 10.0 mi West 13.8 mph - N/A   Overcast
12:55 AM 17.6 °F 3.2 °F 15.8 °F 93% 30.11 in 10.0 mi NW 15.0 mph - N/A   Overcast
1:15 AM 17.6 °F 4.3 °F 14.0 °F 86% 30.12 in 10.0 mi NW 12.7 mph - N/A   Overcast
1:35 AM 15.8 °F -0.2 °F 12.2 °F 86% 30.12 in 10.0 mi NW 17.3 mph - N/A   Overcast
1:55 AM 15.8 °F 0.9 °F 12.2 °F 86% 30.13 in 10.0 mi NW 15.0 mph - N/A   Overcast
2:15 AM 15.8 °F 1.4 °F 10.4 °F 79% 30.14 in 10.0 mi WNW 13.8 mph - N/A   Overcast
2:35 AM 12.2 °F -1.0 °F 8.6 °F 85% 30.14 in 10.0 mi WNW 10.4 mph - N/A   Scattered Clouds
2:55 AM 10.4 °F -3.3 °F 6.8 °F 85% 30.15 in 10.0 mi West 10.4 mph - N/A   Clear
3:15 AM 10.4 °F -3.3 °F 6.8 °F 85% 30.14 in 10.0 mi West 10.4 mph - N/A   Clear
3:35 AM 8.6 °F -4.7 °F 6.8 °F 92% 30.14 in 10.0 mi West 9.2 mph - N/A   Clear
3:55 AM 8.6 °F -4.7 °F 5.0 °F 85% 30.13 in 10.0 mi West 9.2 mph - N/A   Clear
4:15 AM 6.8 °F -5.9 °F 5.0 °F 92% 30.13 in 10.0 mi West 8.1 mph - N/A   Clear
4:35 AM 5.0 °F -8.1 °F 1.4 °F 85% 30.13 in 10.0 mi West 8.1 mph - N/A   Clear
4:55 AM 5.0 °F -10.0 °F 1.4 °F 85% 30.13 in 10.0 mi West 10.4 mph - N/A   Clear
5:15 AM 5.0 °F -5.6 °F 1.4 °F 85% 30.14 in 10.0 mi WSW 5.8 mph - N/A   Clear
5:35 AM 5.0 °F -9.1 °F 1.4 °F 85% 30.15 in 10.0 mi WSW 9.2 mph - N/A   Clear
5:55 AM 5.0 °F -10.0 °F 1.4 °F 85% 30.15 in 10.0 mi West 10.4 mph - N/A   Clear
6:15 AM 5.0 °F -9.1 °F 1.4 °F 85% 30.15 in 10.0 mi WSW 9.2 mph - N/A   Clear
6:35 AM 5.0 °F -10.8 °F 1.4 °F 85% 30.15 in 10.0 mi West 11.5 mph - N/A   Clear
6:55 AM 5.0 °F -10.8 °F 1.4 °F 85% 30.16 in 10.0 mi WNW 11.5 mph - N/A   Clear
7:15 AM 5.0 °F -11.6 °F 1.4 °F 85% 30.16 in 10.0 mi WNW 12.7 mph - N/A   Clear
7:35 AM 5.0 °F -9.1 °F -0.4 °F 78% 30.17 in 10.0 mi West 9.2 mph - N/A   Clear
7:55 AM 5.0 °F -8.1 °F -0.4 °F 78% 30.16 in 10.0 mi West 8.1 mph - N/A   Clear
8:15 AM 5.0 °F -9.1 °F 1.4 °F 85% 30.17 in 10.0 mi West 9.2 mph - N/A   Clear
8:35 AM 3.2 °F -7.8 °F -0.4 °F 85% 30.17 in 10.0 mi WSW 5.8 mph - N/A   Mostly Cloudy
8:55 AM 6.8 °F - 1.4 °F 79% 30.17 in 10.0 mi Calm Calm - N/A   Overcast
9:15 AM 6.8 °F -4.8 °F 1.4 °F 79% 30.16 in 10.0 mi NW 6.9 mph - N/A   Mostly Cloudy
9:35 AM 6.8 °F -3.5 °F 1.4 °F 79% 30.16 in 10.0 mi WNW 5.8 mph - N/A   Clear
9:55 AM 6.8 °F -3.5 °F 3.2 °F 85% 30.16 in 10.0 mi WNW 5.8 mph - N/A   Clear
10:15 AM 8.6 °F -4.7 °F 5.0 °F 85% 30.16 in 10.0 mi NW 9.2 mph - N/A   Clear
10:35 AM 8.6 °F -3.7 °F 5.0 °F 85% 30.16 in 10.0 mi NW 8.1 mph - N/A   Clear
10:55 AM 8.6 °F -3.7 °F 5.0 °F 85% 30.16 in 10.0 mi NNW 8.1 mph - N/A   Clear
11:15 AM 8.6 °F -1.3 °F 5.0 °F 85% 30.16 in 9.0 mi NNW 5.8 mph - N/A Snow Light Snow
11:35 AM 8.6 °F -1.3 °F 5.0 °F 85% 30.15 in 9.0 mi NW 5.8 mph - N/A Snow Light Snow
11:55 AM 8.6 °F -2.6 °F 5.0 °F 85% 30.16 in 10.0 mi NW 6.9 mph - N/A Snow Light Snow
12:15 PM 8.6 °F -1.3 °F 5.0 °F 85% 30.15 in 10.0 mi NNW 5.8 mph - N/A   Mostly Cloudy
12:35 PM 8.6 °F 2.0 °F 5.0 °F 85% 30.15 in 10.0 mi NNW 3.5 mph - N/A   Partly Cloudy
12:55 PM 10.4 °F 4.0 °F 5.0 °F 79% 30.15 in 10.0 mi WNW 3.5 mph - N/A Snow Light Snow
1:15 PM 10.4 °F - 6.8 °F 85% 30.14 in 10.0 mi Calm Calm - N/A   Overcast
1:35 PM 10.4 °F - 6.8 °F 85% 30.14 in 10.0 mi Calm Calm - N/A   Scattered Clouds
1:55 PM 12.2 °F - 6.8 °F 79% 30.13 in 10.0 mi Calm Calm - N/A   Clear
2:15 PM 14.0 °F - 6.8 °F 73% 30.12 in 10.0 mi Calm Calm - N/A   Clear
2:35 PM 14.0 °F - 6.8 °F 73% 30.11 in 10.0 mi Calm Calm - N/A   Clear
2:55 PM 12.2 °F - 6.8 °F 79% 30.11 in 10.0 mi Calm Calm - N/A   Clear
3:15 PM 14.0 °F 8.2 °F 6.8 °F 73% 30.11 in 10.0 mi SSE 3.5 mph - N/A   Partly Cloudy
3:35 PM 14.0 °F - 8.6 °F 79% 30.11 in 10.0 mi Calm Calm - N/A   Partly Cloudy
3:55 PM 14.0 °F 6.5 °F 8.6 °F 79% 30.10 in 10.0 mi SW 4.6 mph - N/A   Partly Cloudy
4:15 PM 15.8 °F - 10.4 °F 79% 30.08 in 9.0 mi Calm Calm - N/A   Clear
4:35 PM 15.8 °F 8.6 °F 10.4 °F 79% 30.06 in 10.0 mi NE 4.6 mph - N/A   Partly Cloudy
4:55 PM 14.0 °F 6.5 °F 10.4 °F 86% 30.05 in 10.0 mi NNE 4.6 mph - N/A   Partly Cloudy
5:15 PM 14.0 °F 6.5 °F 10.4 °F 86% 30.05 in 9.0 mi ENE 4.6 mph - N/A   Clear
5:35 PM 14.0 °F 5.1 °F 8.6 °F 79% 30.05 in 9.0 mi East 5.8 mph - N/A   Clear
5:55 PM 14.0 °F 6.5 °F 10.4 °F 86% 30.05 in 9.0 mi East 4.6 mph - N/A   Clear
6:15 PM 14.0 °F 5.1 °F 10.4 °F 86% 30.05 in 10.0 mi East 5.8 mph - N/A   Clear
6:35 PM 14.0 °F 5.1 °F 10.4 °F 86% 30.04 in 9.0 mi East 5.8 mph - N/A   Clear
6:55 PM 14.0 °F 3.9 °F 10.4 °F 86% 30.04 in 10.0 mi East 6.9 mph - N/A   Clear
7:15 PM 14.0 °F 3.9 °F 10.4 °F 86% 30.04 in 10.0 mi East 6.9 mph - N/A   Clear
7:35 PM 14.0 °F 3.9 °F 10.4 °F 86% 30.03 in 10.0 mi East 6.9 mph - N/A   Clear
7:55 PM 15.8 °F 6.1 °F 12.2 °F 86% 30.03 in 10.0 mi East 6.9 mph - N/A   Clear
8:15 PM 15.8 °F 7.2 °F 12.2 °F 86% 30.02 in 10.0 mi East 5.8 mph - N/A   Clear
8:35 PM 15.8 °F 7.2 °F 12.2 °F 86% 30.02 in 9.0 mi ESE 5.8 mph - N/A Snow Light Snow
8:55 PM 15.8 °F 5.1 °F 12.2 °F 86% 30.01 in 6.0 mi SE 8.1 mph - N/A Snow Light Snow
9:15 PM 15.8 °F 7.2 °F 14.0 °F 93% 30.01 in 9.0 mi SE 5.8 mph - N/A   Mostly Cloudy
9:35 PM 15.8 °F 8.6 °F 14.0 °F 93% 30.00 in 10.0 mi SE 4.6 mph - N/A   Partly Cloudy
9:55 PM 17.6 °F 12.3 °F 14.0 °F 86% 30.00 in 10.0 mi ENE 3.5 mph - N/A   Mostly Cloudy
10:15 PM 17.6 °F 12.3 °F 14.0 °F 86% 29.99 in 10.0 mi NE 3.5 mph - N/A   Overcast
10:35 PM 17.6 °F 9.3 °F 14.0 °F 86% 29.99 in 10.0 mi ENE 5.8 mph - N/A   Overcast
10:55 PM 17.6 °F 8.2 °F 14.0 °F 86% 29.98 in 9.0 mi East 6.9 mph - N/A Snow Light Snow
11:15 PM 17.6 °F 6.4 °F 15.8 °F 93% 29.99 in 7.0 mi SSE 9.2 mph - N/A Snow Light Snow
11:35 PM 17.6 °F 8.2 °F 15.8 °F 93% 29.98 in 5.0 mi SE 6.9 mph - 0.02 in Snow Light Snow
11:55 PM 17.6 °F 10.7 °F 15.8 °F 93% 29.98 in 3.0 mi ESE 4.6 mph - 0.05 in Snow Light Snow